Regional Weather Roundup
Issued by NWS Green Bay, WI

Home | Current Version | Previous Version | Graphics & Text | Print | Product List | Glossary Off
Versions: 1 2 3 4 5 6 7 8 9 10 11 12 13 14 15 16 17 18 19 20 21 22 23 24 25 26 27 28 29 30 31 32 33 34 35 36 37 38 39 40 41 42 43 44 45 46 47 48 49 50

000
ASUS43 KGRB 172200
RWRGRB

NORTH-CENTRAL AND NORTHEAST WISCONSIN REGIONAL WEATHER ROUNDUP
NATIONAL WEATHER SERVICE GREEN BAY WI
400 PM CST WED JAN 17 2018

WIZ005-009-010>012-018-019-172300-
NORTH CENTRAL WISCONSIN

CITY           SKY/WX    TMP DP  RH WIND       PRES   REMARKS
IRONWOOD       FAIR      28   8  43 SW15G24   29.87F
MANITOWISH WTR NOT AVBL
ARBOR VITAE    NOT AVBL
EAGLE RIVER    FAIR      24   8  51 SW16      29.92F
LAND O LAKES   NOT AVBL
RHINELANDER    FAIR      22   8  55 SW16G24   29.97S WCI   8
PHILLIPS       FAIR      22   6  49 SW15      29.99S WCI   9
ANTIGO         NOT AVBL
TOMAHAWK       NOT AVBL
MERRILL        FAIR      21   6  51 SW10      30.05F
$$

WIZ013-073-172300-
NORTHEAST WISCONSIN

CITY           SKY/WX    TMP DP  RH WIND       PRES   REMARKS
IRON MOUNTAIN  FAIR      30   4  33 SW12G22   29.90F
MARINETTE      NOT AVBL
$$

WIZ017-030-035>037-045-172300-
CENTRAL WISCONSIN

CITY           SKY/WX    TMP DP  RH WIND       PRES   REMARKS
MEDFORD        NOT AVBL
WAUSAU         FAIR      23   5  46 SW13      30.05F
MOSINEE        PTCLDY    21   9  58 SW15G21   30.07F WCI   8
MARSHFIELD     FAIR      23   7  50 SW16      30.06F WCI  10
WISC RAPIDS    FAIR      24   5  44 SW20G26   30.12F WCI  10
STEVENS POINT  NOT AVBL
WAUPACA        NOT AVBL
SHAWANO        FAIR      26   7  43 SW14G20   30.07F
CLINTONVILLE   NOT AVBL
WAUTOMA        FAIR      25   7  46 SW17G24   30.15F
$$

WIZ038-039-048-051-172300-
FOX VALLEY

CITY           SKY/WX    TMP DP  RH WIND       PRES   REMARKS
NWS GREEN BAY  FAIR      24   7  48 SW12G26   30.10F
APPLETON       PTCLDY    21   7  53 SW16G23   30.10  WCI   7
OSHKOSH        FAIR      21   8  57 SW14G25   30.14F WCI   8
FOND DU LAC    FAIR      22   7  52 SW17G28   30.17F WCI   8
$$

WIZ022-050-052-172300-
EAST CENTRAL WISCONSIN

CITY           SKY/WX    TMP DP  RH WIND       PRES   REMARKS
EPHRAIM        NOT AVBL
WASHINGTON ISL NOT AVBL
STURGEON BAY   FAIR      22  10  60 SW17G23   30.04F WCI   8
MANITOWOC      FAIR      23   9  55 SW17G24   30.13F WCI   9
SHEBOYGAN      FAIR      21  10  62 SW23G30   30.16F WCI   5
$$

LMZ563-521-522-541>543-172300-
LAKESHORE

STATION/POSITION TIME  TEMP    WIND        PRES    VSBY  WAVE
                       AIR SEA DIR/SP/G                  HT/PER
                 (UTC) (F)     (DEG/KT/KT) (MB)    (MI)  (FT/S)
SHEBOYGAN LKSHOR 2100   23     220/ 15/ 21 1023.2F
KEWAUNEE LKSHORE 2130   22     230/ 11/ 20 1018.8F
NORTHPORT PIER   2141   22     200/  6     1016.6F
MENOMINEE LKSHOR 2124   22     220/ 14/ 19 1017.0
$$




USA.gov is the U.S. government's official web portal to all federal, state and local government web resources and services.